Вернуться в каталог

FENGYUN 1C DEB

АктивенPO
NORAD 37687·DEBRIS·🇨🇳 China

Запущен May 10, 1999 с Taiyuan Satellite Launch Center

Loading…

Ближайшие Пролёты (ближайшие 24 часа)

TLE

СвежийSource: Space-Track

Эпоха: Sep 13, 2026, 06:31 UTC

1 37687U 99025ELC 26256.27155272  .00004163  00000-0  23112-2 0  9993
2 37687  98.1895 263.0558 0326010 320.0414 100.3357 13.87996950870593

Отслеживайте FENGYUN 1C DEB в реальном времени с AllMySat

Download on the App Store